Mandan, ND

6:00 AM MDT on August 26, 2016 (GMT -0600)
Mandan

Weather History for KY19 - December, 2012

Change the Weather History Date:

Tuesday, December 11, 2012

  Actual Average (KBIS) Record (KBIS)
Temperature  
Mean Temperature 19 °F 17 °F  
Max Temperature 24 °F 27 °F 64 °F (1939)
Min Temperature 14 °F 7 °F -22 °F (2013)
Degree Days  
Heating Degree Days 46 48  
Month to date heating degree days 505  
Since 1 July heating degree days 2491  
Cooling Degree Days 0 0  
Month to date cooling degree days 0  
Year to date cooling degree days 520  
Moisture  
Dew Point 17 °F    
Average Humidity 93    
Maximum Humidity 100    
Minimum Humidity 79    
Precipitation  
Precipitation 0.00 in 0.01 in 0.45 in (1893)
Month to date precipitation 0.17  
Year to date precipitation 17.53  
Snow  
Snow 0.00 in 0.20 in 4.50 in (1995)
Month to date snowfall 3.0  
Since 1 July snowfall 14.2  
Snow Depth -    
Sea Level Pressure  
Sea Level Pressure 29.72 in    
Wind  
Wind Speed 8 mph (ESE)    
Max Wind Speed 15 mph    
Max Gust Speed 23 mph    
Visibility 10 miles    
Events Snow    
T = Trace of Precipitation, MM = Missing Value Source: NWS Daily Summary

Daily Weather History Graph

Daily Weather History Graph

Search for Another Location

Airport or City:

Trip Planner

Search our weather history database for the weather conditions in past years. The results will help you decide how hot, cold, wet, or windy it might be!

Date:

Astronomy

Dec. 11, 2012 Rise Set
Actual Time 8:18 AM CST 4:55 PM CST
Civil Twilight 7:43 AM CST 5:30 PM CST
Nautical Twilight 7:05 AM CST 6:08 PM CST
Astronomical Twilight 6:28 AM CST 6:45 PM CST
Moon 6:12 AM CST (12/11) 3:38 PM CST (12/11)
Length of Visible Light 9h 46m
Length of Day
8h 36m
Waning Crescent, 4% of the Moon is Illuminated
Dec 11
Waning Crescent
Dec 13
New
Dec 19
First Quarter
Dec 28
Full
Jan 4
Last Quarter

Hourly Weather History & Observations

Time (CST) Temp. Windchill Dew Point Humidity Pressure Visibility Wind Dir Wind Speed Gust Speed Precip Events Conditions
12:15 AM 23.0 °F 14.7 °F 23.0 °F 100% 29.74 in 10.0 mi WSW 6.9 mph - N/A Snow Light Snow
12:35 AM 23.0 °F 17.0 °F 23.0 °F 100% 29.73 in 10.0 mi WSW 4.6 mph - N/A Snow Light Snow
12:55 AM 23.0 °F 17.0 °F 23.0 °F 100% 29.73 in 10.0 mi SW 4.6 mph - N/A Snow Light Snow
1:15 AM 23.0 °F 18.4 °F 23.0 °F 100% 29.73 in 9.0 mi SW 3.5 mph - N/A Snow Light Snow
1:35 AM 23.0 °F - 23.0 °F 100% 29.72 in 10.0 mi Calm Calm - N/A Snow Light Snow
1:55 AM 23.0 °F 13.9 °F 23.0 °F 100% 29.72 in 10.0 mi NW 8.1 mph - N/A   Overcast
2:15 AM 24.8 °F 14.6 °F 24.8 °F 100% 29.73 in 10.0 mi NW 10.4 mph - N/A   Overcast
2:35 AM 24.8 °F 14.6 °F 24.8 °F 100% 29.73 in 10.0 mi NW 10.4 mph - N/A   Overcast
2:55 AM 24.8 °F 15.3 °F 24.8 °F 100% 29.74 in 10.0 mi NW 9.2 mph - N/A   Overcast
3:15 AM 24.8 °F 14.0 °F 24.8 °F 100% 29.74 in 10.0 mi NW 11.5 mph - N/A   Overcast
3:35 AM 23.0 °F 12.4 °F 23.0 °F 100% 29.75 in 10.0 mi WNW 10.4 mph - N/A   Mostly Cloudy
3:55 AM 23.0 °F 12.4 °F 23.0 °F 100% 29.75 in 10.0 mi WNW 10.4 mph - N/A   Mostly Cloudy
4:15 AM 23.0 °F 11.1 °F 23.0 °F 100% 29.75 in 10.0 mi NW 12.7 mph - N/A   Overcast
4:35 AM 23.0 °F 10.1 °F 19.4 °F 86% 29.76 in 10.0 mi NW 15.0 mph 23.0 mph N/A   Mostly Cloudy
4:55 AM 23.0 °F 13.9 °F 19.4 °F 86% 29.76 in 10.0 mi NW 8.1 mph - N/A   Overcast
5:15 AM 19.4 °F 8.6 °F 17.6 °F 93% 29.76 in 10.0 mi NNW 9.2 mph - N/A   Overcast
5:35 AM 19.4 °F 11.5 °F 17.6 °F 93% 29.76 in 10.0 mi NW 5.8 mph - N/A   Overcast
5:55 AM 17.6 °F 9.3 °F 15.8 °F 93% 29.77 in 10.0 mi WNW 5.8 mph - N/A   Overcast
6:15 AM 19.4 °F 8.6 °F 15.8 °F 86% 29.77 in 10.0 mi NW 9.2 mph - N/A   Overcast
6:35 AM 19.4 °F 7.2 °F 15.8 °F 86% 29.78 in 10.0 mi NW 11.5 mph - N/A Snow Light Snow
6:55 AM 19.4 °F 7.9 °F 15.8 °F 86% 29.78 in 10.0 mi NW 10.4 mph - N/A Snow Light Snow
7:15 AM 19.4 °F 7.9 °F 17.6 °F 93% 29.78 in 10.0 mi NNW 10.4 mph - N/A   Overcast
7:35 AM 19.4 °F 9.5 °F 15.8 °F 86% 29.79 in 10.0 mi NNW 8.1 mph - N/A   Overcast
7:55 AM 17.6 °F 5.7 °F 15.8 °F 93% 29.79 in 10.0 mi North 10.4 mph - N/A   Overcast
8:15 AM 17.6 °F 5.7 °F 15.8 °F 93% 29.79 in 10.0 mi North 10.4 mph - N/A Snow Light Snow
8:35 AM 17.6 °F 7.3 °F 15.8 °F 93% 29.79 in 10.0 mi NNW 8.1 mph - N/A Snow Light Snow
8:55 AM 15.8 °F 3.4 °F 14.0 °F 93% 29.79 in 10.0 mi NNE 10.4 mph - N/A   Overcast
9:15 AM 15.8 °F 6.1 °F 14.0 °F 93% 29.80 in 10.0 mi NE 6.9 mph - N/A Snow Light Snow
9:35 AM 15.8 °F 6.1 °F 14.0 °F 93% 29.80 in 10.0 mi North 6.9 mph - N/A Snow Light Snow
9:55 AM 14.0 °F 5.1 °F 12.2 °F 93% 29.80 in 10.0 mi NE 5.8 mph - N/A   Overcast
10:15 AM 14.0 °F 6.5 °F 12.2 °F 93% 29.81 in 10.0 mi NNE 4.6 mph - N/A Snow Light Snow
10:35 AM 15.8 °F 7.2 °F 12.2 °F 86% 29.81 in 8.0 mi NE 5.8 mph - N/A Snow Light Snow
10:55 AM 14.0 °F 5.1 °F 12.2 °F 93% 29.81 in 7.0 mi NNE 5.8 mph - N/A Snow Light Snow
11:15 AM 15.8 °F 8.6 °F 12.2 °F 86% 29.81 in 10.0 mi NE 4.6 mph - N/A Snow Light Snow
11:35 AM 15.8 °F 8.6 °F 12.2 °F 86% 29.80 in 10.0 mi NE 4.6 mph - N/A   Overcast
11:55 AM 15.8 °F 5.1 °F 12.2 °F 86% 29.78 in 10.0 mi ESE 8.1 mph - N/A   Overcast
12:15 PM 15.8 °F 7.2 °F 12.2 °F 86% 29.79 in 10.0 mi SSE 5.8 mph - N/A   Mostly Cloudy
12:35 PM 15.8 °F 5.1 °F 10.4 °F 79% 29.78 in 10.0 mi SE 8.1 mph - N/A   Mostly Cloudy
12:55 PM 15.8 °F 5.1 °F 10.4 °F 79% 29.78 in 10.0 mi ESE 8.1 mph - N/A   Overcast
1:15 PM 15.8 °F 6.1 °F 10.4 °F 79% 29.77 in 10.0 mi SE 6.9 mph - N/A   Overcast
1:35 PM 15.8 °F 5.1 °F 12.2 °F 86% 29.77 in 10.0 mi SE 8.1 mph - N/A   Overcast
1:55 PM 15.8 °F 4.2 °F 12.2 °F 86% 29.76 in 10.0 mi SE 9.2 mph - N/A   Overcast
2:15 PM 15.8 °F 3.4 °F 14.0 °F 93% 29.75 in 10.0 mi ESE 10.4 mph - N/A   Overcast
2:35 PM 17.6 °F 7.3 °F 14.0 °F 86% 29.74 in 10.0 mi ESE 8.1 mph - N/A   Overcast
2:55 PM 17.6 °F 5.7 °F 14.0 °F 86% 29.73 in 10.0 mi ESE 10.4 mph - N/A   Overcast
3:15 PM 17.6 °F 6.4 °F 14.0 °F 86% 29.72 in 10.0 mi SE 9.2 mph - N/A   Scattered Clouds
3:35 PM 15.8 °F 5.1 °F 14.0 °F 93% 29.72 in 10.0 mi SE 8.1 mph - N/A   Clear
3:55 PM 15.8 °F 5.1 °F 14.0 °F 93% 29.72 in 10.0 mi SE 8.1 mph - N/A   Clear
4:15 PM 15.8 °F 5.1 °F 14.0 °F 93% 29.71 in 10.0 mi ESE 8.1 mph - N/A   Clear
4:35 PM 15.8 °F 4.2 °F 14.0 °F 93% 29.71 in 10.0 mi ESE 9.2 mph - N/A   Clear
4:55 PM 14.0 °F 2.0 °F 12.2 °F 93% 29.70 in 10.0 mi SE 9.2 mph - N/A   Clear
5:15 PM 15.8 °F 3.4 °F 14.0 °F 93% 29.70 in 10.0 mi SE 10.4 mph - N/A   Mostly Cloudy
5:35 PM 15.8 °F 5.1 °F 14.0 °F 93% 29.69 in 10.0 mi ESE 8.1 mph - N/A   Mostly Cloudy
5:55 PM 14.0 °F 2.9 °F 14.0 °F 100% 29.68 in 10.0 mi ESE 8.1 mph - N/A   Mostly Cloudy
6:15 PM 15.8 °F 5.1 °F 14.0 °F 93% 29.67 in 10.0 mi ESE 8.1 mph - N/A   Mostly Cloudy
6:35 PM 15.8 °F 4.2 °F 14.0 °F 93% 29.67 in 10.0 mi SE 9.2 mph - N/A   Overcast
6:55 PM 15.8 °F 4.2 °F 15.8 °F 100% 29.66 in 10.0 mi SE 9.2 mph - N/A   Overcast
7:15 PM 17.6 °F 7.3 °F 17.6 °F 100% 29.66 in 10.0 mi SE 8.1 mph - N/A   Overcast
7:35 PM 17.6 °F 5.7 °F 17.6 °F 100% 29.65 in 10.0 mi SSE 10.4 mph - N/A   Overcast
7:55 PM 21.2 °F 9.5 °F 21.2 °F 100% 29.65 in 10.0 mi SSE 11.5 mph - N/A   Overcast
8:15 PM 23.0 °F 11.7 °F 21.2 °F 93% 29.65 in 10.0 mi SSE 11.5 mph 18.4 mph N/A   Overcast
8:35 PM 23.0 °F 12.4 °F 23.0 °F 100% 29.63 in 10.0 mi SSE 10.4 mph - N/A   Overcast
8:55 PM 23.0 °F 11.7 °F 23.0 °F 100% 29.63 in 10.0 mi SSE 11.5 mph - N/A   Overcast
9:15 PM 24.8 °F 14.0 °F 23.0 °F 93% 29.63 in 10.0 mi SSE 11.5 mph - N/A   Overcast
9:35 PM 24.8 °F 13.4 °F 23.0 °F 93% 29.62 in 10.0 mi SSE 12.7 mph - N/A   Overcast
9:55 PM 24.8 °F 14.6 °F 23.0 °F 93% 29.61 in 10.0 mi SSE 10.4 mph - N/A   Overcast
10:15 PM 24.8 °F 14.6 °F 23.0 °F 93% 29.60 in 10.0 mi SSE 10.4 mph - N/A   Overcast
10:35 PM 24.8 °F 14.6 °F 23.0 °F 93% 29.60 in 10.0 mi SSE 10.4 mph - N/A   Overcast
10:55 PM 24.8 °F 13.4 °F 23.0 °F 93% 29.59 in 10.0 mi SSE 12.7 mph - N/A   Overcast
11:15 PM 24.8 °F 14.0 °F 23.0 °F 93% 29.58 in 10.0 mi SSE 11.5 mph - N/A   Overcast
11:35 PM 24.8 °F 14.6 °F 23.0 °F 93% 29.58 in 10.0 mi South 10.4 mph - N/A   Overcast
11:55 PM 24.8 °F 16.1 °F 23.0 °F 93% 29.57 in 10.0 mi South 8.1 mph - N/A   Overcast